| time (UTC) | temp C | wind direction | speed KPH | gust KPH | rain 1hr cm | rain 24hr cm | rain mn cm | humidity % | barometer mb |
| 20260502183843 | 20 | 0.0 | 0.0 | 0.00 | 0.00 | 0.00 | 70 | 1018.8 | |
| 20260502182748 | 20 | 0.0 | 0.0 | 0.00 | 0.00 | 0.00 | 70 | 1018.9 | |
| 20260502181652 | 20 | 0.0 | 0.0 | 0.00 | 0.00 | 0.00 | 69 | 1019.0 | |
| 20260502180556 | 20 | 0.0 | 0.0 | 0.00 | 0.00 | 0.00 | 69 | 1019.0 | |
| 20260502163832 | 21 | 0.0 | 0.0 | 0.00 | 0.00 | 0.00 | 67 | 1019.5 | |
| 20260502162736 | 21 | 0.0 | 0.0 | 0.00 | 0.00 | 0.00 | 66 | 1019.4 | |
| 20260502161641 | 22 | 0.0 | 0.0 | 0.00 | 0.00 | 0.00 | 66 | 1019.6 | |
| 20260502160545 | 22 | 0.0 | 0.0 | 0.00 | 0.00 | 0.00 | 65 | 1020.0 | |
| 20260502152202 | 23 | 0.0 | 0.0 | 0.00 | 0.00 | 0.00 | 63 | 1019.9 | |
| 20260502151106 | 23 | 0.0 | 0.0 | 0.00 | 0.00 | 0.00 | 63 | 1020.0 | |
| 20260502123804 | 23 | 0.0 | 0.0 | 0.00 | 0.00 | 0.00 | 63 | 1021.9 | |
| 20260502122708 | 23 | 0.0 | 0.0 | 0.00 | 0.00 | 0.00 | 63 | 1021.9 | |
| 20260502121613 | 23 | 0.0 | 0.0 | 0.00 | 0.00 | 0.00 | 63 | 1022.0 | |
| 20260502120517 | 23 | 0.0 | 0.0 | 0.00 | 0.00 | 0.00 | 64 | 1021.9 | |
| 20260502115421 | 23 | 0.0 | 0.0 | 0.00 | 0.00 | 0.00 | 64 | 1022.0 | |
| 20260502114325 | 23 | 0.0 | 0.0 | 0.00 | 0.00 | 0.00 | 64 | 1022.1 | |
| 20260502113229 | 23 | 0.0 | 0.0 | 0.00 | 0.00 | 0.00 | 64 | 1022.2 | |
| 20260502112133 | 23 | 0.0 | 0.0 | 0.00 | 0.00 | 0.00 | 63 | 1022.3 | |
| 20260502111038 | 23 | 0.0 | 0.0 | 0.00 | 0.00 | 0.00 | 62 | 1022.5 | |
| 20260502105942 | 23 | 0.0 | 0.0 | 0.00 | 0.00 | 0.00 | 62 | 1022.6 | |
| 20260502104846 | 23 | 0.0 | 0.0 | 0.00 | 0.00 | 0.00 | 62 | 1022.7 | |
| 20260502103750 | 23 | 0.0 | 0.0 | 0.00 | 0.00 | 0.00 | 63 | 1022.6 | |
| 20260502102654 | 22 | 0.0 | 0.0 | 0.00 | 0.00 | 0.00 | 63 | 1022.6 | |
| 20260502101559 | 22 | 0.0 | 0.0 | 0.00 | 0.00 | 0.00 | 63 | 1022.5 | |
| 20260502100503 | 22 | 0.0 | 0.0 | 0.00 | 0.00 | 0.00 | 64 | 1022.5 | |
| 20260502091025 | 22 | 0.0 | 0.0 | 0.00 | 0.00 | 0.00 | 65 | 1022.8 | |
| 20260502071011 | 18 | 0.0 | 0.0 | 0.00 | 0.00 | 0.00 | 75 | 1023.1 | |
| 20260502065916 | 18 | 0.0 | 0.0 | 0.00 | 0.00 | 0.00 | 76 | 1023.1 | |
| 20260502064820 | 17 | 0.0 | 0.0 | 0.00 | 0.00 | 0.00 | 78 | 1023.1 | |
| 20260502063724 | 17 | 0.0 | 0.0 | 0.00 | 0.00 | 0.00 | 77 | 1023.0 | |
| 20260502062624 | 17 | 0.0 | 0.0 | 0.00 | 0.00 | 0.00 | 77 | 1023.0 | |
| 20260502061520 | 17 | 0.0 | 0.0 | 0.00 | 0.00 | 0.00 | 78 | 1023.0 | |
| 20260502060424 | 17 | 0.0 | 0.0 | 0.00 | 0.00 | 0.00 | 78 | 1022.9 | |
| 20260502055328 | 17 | 0.0 | 0.0 | 0.00 | 0.00 | 0.00 | 77 | 1022.8 | |
| 20260502054233 | 17 | 0.0 | 0.0 | 0.00 | 0.00 | 0.00 | 78 | 1022.7 | |
| 20260502053137 | 17 | 0.0 | 0.0 | 0.00 | 0.00 | 0.00 | 77 | 1022.7 | |
| 20260502052042 | 17 | 0.0 | 0.0 | 0.00 | 0.00 | 0.00 | 77 | 1022.7 | |
| 20260502050946 | 17 | 0.0 | 0.0 | 0.00 | 0.00 | 0.00 | 76 | 1022.6 | |
| 20260502045850 | 17 | 0.0 | 0.0 | 0.00 | 0.00 | 0.00 | 79 | 1022.4 | |
| 20260502044755 | 17 | 0.0 | 0.0 | 0.00 | 0.00 | 0.00 | 78 | 1022.3 | |
| 20260502043659 | 17 | 0.0 | 0.0 | 0.00 | 0.00 | 0.00 | 77 | 1022.4 | |
| 20260502042603 | 17 | 0.0 | 0.0 | 0.00 | 0.00 | 0.00 | 76 | 1022.3 | |
| 20260502041508 | 18 | 0.0 | 0.0 | 0.00 | 0.00 | 0.00 | 77 | 1022.2 | |
| 20260502040412 | 18 | 0.0 | 0.0 | 0.00 | 0.00 | 0.00 | 77 | 1022.2 | |
| 20260502035316 | 18 | 0.0 | 0.0 | 0.00 | 0.00 | 0.00 | 77 | 1022.2 | |
| 20260502034221 | 18 | 0.0 | 0.0 | 0.00 | 0.00 | 0.00 | 78 | 1022.3 | |
| 20260502033125 | 18 | 0.0 | 0.0 | 0.00 | 0.00 | 0.00 | 79 | 1022.3 | |
| 20260502032029 | 18 | 0.0 | 0.0 | 0.00 | 0.00 | 0.00 | 79 | 1022.3 | |
| 20260502030934 | 18 | 0.0 | 0.0 | 0.00 | 0.00 | 0.00 | 79 | 1022.3 | |
| 20260502025838 | 18 | 0.0 | 0.0 | 0.00 | 0.00 | 0.00 | 78 | 1022.3 | |
| 20260502024742 | 18 | 0.0 | 0.0 | 0.00 | 0.00 | 0.00 | 77 | 1022.3 | |
| 20260502023647 | 18 | 0.0 | 0.0 | 0.00 | 0.00 | 0.00 | 77 | 1022.2 | |
| 20260502022551 | 18 | 0.0 | 0.0 | 0.00 | 0.00 | 0.00 | 75 | 1022.3 | |
| 20260502021456 | 18 | 0.0 | 0.0 | 0.00 | 0.00 | 0.00 | 77 | 1022.3 | |
| 20260502020400 | 18 | 0.0 | 0.0 | 0.00 | 0.00 | 0.00 | 76 | 1022.3 | |
| 20260502015305 | 18 | 0.0 | 0.0 | 0.00 | 0.00 | 0.00 | 76 | 1022.4 | |
| 20260502014209 | 18 | 0.0 | 0.0 | 0.00 | 0.00 | 0.00 | 75 | 1022.5 | |
| 20260502013113 | 18 | 0.0 | 0.0 | 0.00 | 0.00 | 0.00 | 75 | 1022.7 | |
| 20260502012017 | 18 | 0.0 | 0.0 | 0.00 | 0.00 | 0.00 | 76 | 1022.8 | |
| 20260502010921 | 19 | 0.0 | 0.0 | 0.00 | 0.00 | 0.00 | 75 | 1022.9 | |
| 20260502005825 | 18 | 0.0 | 0.0 | 0.00 | 0.00 | 0.00 | 75 | 1023.0 | |
| 20260502004730 | 18 | 0.0 | 0.0 | 0.00 | 0.00 | 0.00 | 75 | 1023.1 | |
| 20260502003634 | 18 | 0.0 | 0.0 | 0.00 | 0.00 | 0.00 | 75 | 1023.1 | |
| 20260502002539 | 18 | 0.0 | 0.0 | 0.00 | 0.00 | 0.00 | 75 | 1023.2 | |
| 20260502001443 | 18 | 0.0 | 0.0 | 0.00 | 0.00 | 0.00 | 74 | 1023.3 | |
| 20260502000347 | 18 | 0.0 | 0.0 | 0.00 | 0.00 | 0.00 | 73 | 1023.4 | |
| 20260501235251 | 18 | 0.0 | 0.0 | 0.00 | 0.00 | 0.00 | 74 | 1023.6 | |
| 20260501234155 | 18 | 0.0 | 0.0 | 0.00 | 0.00 | 0.00 | 74 | 1023.7 | |
| 20260501233059 | 18 | 0.0 | 0.0 | 0.00 | 0.00 | 0.00 | 74 | 1023.8 | |
| 20260501232004 | 18 | 0.0 | 0.0 | 0.00 | 0.00 | 0.00 | 73 | 1023.9 | |
| 20260501230909 | 18 | 0.0 | 0.0 | 0.00 | 0.00 | 0.00 | 73 | 1024.0 | |
| 20260501225813 | 18 | 0.0 | 0.0 | 0.00 | 0.00 | 0.00 | 72 | 1023.9 | |
| 20260501224717 | 19 | 0.0 | 0.0 | 0.00 | 0.00 | 0.00 | 72 | 1023.8 | |
| 20260501223622 | 19 | 0.0 | 0.0 | 0.00 | 0.00 | 0.00 | 72 | 1023.7 | |
| 20260501222526 | 19 | 0.0 | 0.0 | 0.00 | 0.00 | 0.00 | 71 | 1023.8 | |
| 20260501221430 | 19 | 0.0 | 0.0 | 0.00 | 0.00 | 0.00 | 71 | 1023.9 | |
| 20260501220334 | 18 | 0.0 | 0.0 | 0.00 | 0.00 | 0.00 | 71 | 1024.1 | |
| 20260501215238 | 18 | 0.0 | 0.0 | 0.00 | 0.00 | 0.00 | 71 | 1024.1 | |
| 20260501214143 | 18 | 0.0 | 0.0 | 0.00 | 0.00 | 0.00 | 72 | 1024.0 | |
| 20260501213047 | 18 | 0.0 | 0.0 | 0.00 | 0.00 | 0.00 | 71 | 1024.0 | |
| 20260501211951 | 18 | 0.0 | 0.0 | 0.00 | 0.00 | 0.00 | 71 | 1023.9 | |
| 20260501210855 | 18 | 0.0 | 0.0 | 0.00 | 0.00 | 0.00 | 71 | 1024.0 | |
| 20260501205759 | 18 | 0.0 | 0.0 | 0.00 | 0.00 | 0.00 | 72 | 1024.0 | |
| 20260501204704 | 18 | 0.0 | 0.0 | 0.00 | 0.00 | 0.00 | 72 | 1024.0 | |
| 20260501203608 | 19 | 0.0 | 0.0 | 0.00 | 0.00 | 0.00 | 72 | 1023.9 | |
| 20260501202512 | 19 | 0.0 | 0.0 | 0.00 | 0.00 | 0.00 | 71 | 1023.8 | |
| 20260501201417 | 19 | 0.0 | 0.0 | 0.00 | 0.00 | 0.00 | 71 | 1023.9 | |
| 20260501200320 | 19 | 0.0 | 0.0 | 0.00 | 0.00 | 0.00 | 71 | 1023.7 | |
| 20260501195225 | 19 | 0.0 | 0.0 | 0.00 | 0.00 | 0.00 | 70 | 1023.5 | |
| 20260501194129 | 19 | 0.0 | 0.0 | 0.00 | 0.00 | 0.00 | 70 | 1023.5 | |
| 20260501193033 | 19 | 0.0 | 0.0 | 0.00 | 0.00 | 0.00 | 70 | 1023.4 | |
| 20260501191937 | 19 | 0.0 | 0.0 | 0.00 | 0.00 | 0.00 | 70 | 1023.2 | |
| 20260501190841 | 20 | 0.0 | 0.0 | 0.00 | 0.00 | 0.00 | 69 | 1023.2 | |
| 20260501185745 | 20 | 0.0 | 0.0 | 0.00 | 0.00 | 0.00 | 69 | 1023.1 |